Regional Weather Roundup
Issued by NWS

Home | Current Version | Previous Version | Graphics & Text | Print | Product List | Glossary On
Versions: 1 2 3 4 5 6 7 8 9 10 11 12 13 14 15 16 17 18 19 20 21 22 23 24 25 26 27 28 29 30 31 32 33 34 35 36 37 38 39 40 41 42 43 44 45 46 47 48 49 50
000
ASUS43 KLMK 281002
RWRKY
KENTUCKY REGIONAL WEATHER ROUNDUP
NATIONAL WEATHER SERVICE LOUISVILLE KY
500 AM EST TUE FEB 28 2017

NOTE "FAIR" INDICATES FEW OR NO CLOUDS BELOW 12,000 FEET
WITH NO SIGNIFICANT WEATHER AND/OR OBSTRUCTIONS TO VISIBILITY.

KYZ001>023-026-027-061>063-070>075-281100-
WESTERN AND SOUTH CENTRAL KENTUCKY

CITY           SKY/WX    TMP DP  RH WIND       PRES   REMARKS
PADUCAH        TSTM      56  51  84 S16       29.97F
HENDERSON      CLOUDY    52  46  82 S12       30.00F
OWENSBORO      CLOUDY    52  49  89 S15       30.03F
HOPKINSVILLE   CLOUDY    55  50  84 S9        30.04F
BOWLING GREEN  CLOUDY    54  49  83 S12       30.08F
GLASGOW        NOT AVBL
$$

KYZ024-025-028>034-038-045-046-053-281100-
NORTH CENTRAL KENTUCKY

CITY           SKY/WX    TMP DP  RH WIND       PRES   REMARKS
LOUISVILLE/SDF LGT RAIN  52  46  80 SE12      30.05F
LOUISVILLE/LOU LGT RAIN  50  46  86 SE6       30.06S
FORT KNOX        N/A    N/A N/A N/A MISG        N/A
$$

KYZ035>037-039>044-047>052-055>060-089>105-281100-
NORTHEAST KENTUCKY

CITY           SKY/WX    TMP DP  RH WIND       PRES   REMARKS
LEXINGTON      LGT RAIN  50  43  77 S10       30.11S
COVINGTON      CLOUDY    44  41  89 S9        30.10R
FRANKFORT      CLOUDY    49  42  77 S5        30.09F
$$

KYZ054-064>069-076>088-106>120-281100-
SOUTHEAST KENTUCKY

CITY           SKY/WX    TMP DP  RH WIND       PRES   REMARKS
JACKSON        PTCLDY    48  37  65 S5        30.14F
LONDON         MOCLDY    40  36  86 CALM      30.14S
SOMERSET       CLOUDY    46  41  81 CALM      30.15S
MIDDLESBORO    CLOUDY    37  35  92 CALM      30.21R
MONTICELLO     MOSUNNY   54  47  77 VRB7      30.14S
$$





USA.gov is the U.S. government's official web portal to all federal, state and local government web resources and services.